PCSAT (NO-44) (26931 NORAD) Tracking and Keplerian Element Data

This shows tracking and keplerian element data for the satellite.

Feedback or suggestion? Click here.




ElementValue
Catalog26931
NamePCSAT (NO-44)
Epoch Orbit21931
Epoch Day35.17940174
Epoch Year2025
RAAN92.0395
Inclination67.0505
Eccentricity0.0006103
Argument of Perigee263.1187
Mean Anonmoly96.9221
Mean Motion14.31607594
Decay Rate3.92E-06
L11 26931U 01043C 25035.17940174 .00000392 00000+0 17802-3 0 9991
L22 26931 67.0505 92.0395 0006103 263.1187 96.9221 14.31607594219317



Live tracking and technical data element details for PCSAT (NO-44) (NORAD 26931). PCSAT (NO-44) can be tracked NOW for your location showing map with azimuth and elevation plus other details from your city location.







IsCatalogInMostPopularTable: catalog: 26931, numindb: 1451
Update: records affected: 1



GetName: 26931 PCSAT (NO-44)

Hit Count: updated at: Thu, 19 Jun 2025 09:39:15 GMT